Location: Cuiry
(49.3858°N, 3.7708°E)
Time: 22:58:29
(UTC+00:00)

Cosmos 2184 Rocket - Pass Details

Date: 12 January 2026
Orbit: 958 x 1001 km, 82.9° (Epoch: 7 February)

Event Time Altitude Azimuth Distance (km) Brightness Sun altitude
Rises 16:34:35 0° 350° (N) 3,653 6.8 -4.3°
Reaches altitude 10° 16:37:06 10° 351° (N) 2,703 6.1 -4.7°
Maximum altitude 16:43:18 89° 82° (E) 970 4.1 -5.6°
Drops below altitude 10° 16:49:29 10° 172° (S) 2,701 6.6 -6.5°
Sets 16:51:59 0° 173° (S) 3,650 7.3 -6.8°
